Terminal Aerodrome Forecast
Issued by NWS

Home | Current Version | Previous Version | Graphics & Text | Print | Product List | Glossary On
Versions: 1 2 3 4 5 6 7 8 9 10 11 12 13 14 15 16 17 18
000
FTUS43 KBIS 201800 AAA
TAFJMS
TAF AMD
KJMS 201832Z 2019/2118 32015G25KT P6SM BKN070
     FM202000 32020G31KT P6SM SCT080
     FM210100 32010KT P6SM SKC=

USA.gov is the U.S. government's official web portal to all federal, state and local government web resources and services.